Location: St. Louis
(38.6270°N, 90.1994°W)
Time: 10:19:27
(UTC-06:00)

Vanguard 2 Rocket - Pass Details

Date: 05 December 2021
Orbit: 553 x 3325 km, 32.9° (Epoch: 23 January)

Event Time Altitude Azimuth Distance (km) Brightness Sun altitude
Rises 00:34:21 0° 272° (W) 5,403 - -71.4°
Reaches altitude 10° 00:38:30 10° 259° (W) 4,815 - -70.9°
Maximum altitude 00:48:58 24° 213° (SSW) 4,561 - -69.6°
Drops below altitude 10° 01:02:22 10° 169° (S) 6,211 - -67.8°
Exits shadow 01:06:21 - 162° (SSE) 6,858 11.2 -67.2°
Sets 01:09:01 0° 158° (SSE) 7,301 11.4 -66.8°
